Starlink 5245

operational
NORAD ID: 54168 Int'l Des: 2022-141 Owner: SPXS Country: US Constellation: starlink
LEOCIRCULAR

关于 Starlink 5245

正在加载描述...

实时位置

正在加载3D地球...

即将过境

高度历史

Altitude vs Time

uPlot chart will show altitude changes over time

两行轨道根数

1 54168U 22141M 25305.03371081 -.00001565 00000-0 -80269-4 0 9990
2 54168 53.2160 221.7720 0001439 76.3677 283.7476 15.08829388166436
Epoch: Nov 1, 2025 • Age: 40 hours

当前状态

高度 542.2 km
速度 7.60 km/s
星下点 38.18°N, 43.76°W
发射日期 Oct 28, 2022
运行时间 3 years
类型 internet

技术详情

分类 Payload
质量 305.00 kg
干质量 290.00 kg
总质量 305.00 kg
长度 0.20 m
直径 2.80 m
跨度 9.00 m
形状 Box + pan
制造商 SPXS
平台类型 Starlink
阶段状态 In Orbit
所有者/国家 SPXS/US

大型星座

Loading constellations...